Location: Vista Encantada
(35.1109°N, 106.5681°W)
Time: 09:52:09
(UTC+00:00)

Nauka - Pass Details

Date: 06 October 2021
Orbit: 418 x 423 km, 51.6° (Epoch: 15 October)

Event Time Altitude Azimuth Distance (km) Brightness Sun altitude
Rises 02:07:46 0° 311° (NW) 2,362 ? -17.9°
Reaches altitude 10° 02:09:52 10° 311° (NW) 1,497 ? -18.4°
Maximum altitude 02:13:14 82° 223° (SW) 426 ? -19.0°
Enters shadow 02:13:39 65° 151° (SSE) 464 ? -19.1°
